Terug naar catalogus

USA 577

ActiefMilitairVLEO
NORAD 67489·PAYLOAD·🇺🇸 United States

Gelanceerd Jan 17, 2026 vanaf Vandenberg Space Force Base

Loading…

Volgende Passages (komende 24 uur)

TLE

VerouderdSource: Mike McCants

Epoch: Jul 26, 2026, 22:16 UTC

1 67489U 26011F   26207.92808461 0.00000000  00000-0  00000-0 0    02
2 67489  70.0210 137.2383 0002000 286.1340  73.8660 14.96713362    01

Volg USA 577 in realtime met AllMySat

Download on the App Store